Weather History for Windom, MN

Change the Weather History Date:

Sunday, September 7, 2014

  Actual Average Record
Temperature  
Mean Temperature 62 °F -  
Max Temperature 73 °F 78 °F 99 °F (1978)
Min Temperature 51 °F 53 °F 34 °F (1956)
Degree Days  
Heating Degree Days 3    
Growing Degree Days 12 (Base 50)    
Moisture  
Dew Point 51 °F    
Average Humidity 67    
Maximum Humidity 88    
Minimum Humidity 44    
Precipitation  
Precipitation 0.00 in - - ()
Sea Level Pressure  
Sea Level Pressure 30.11 in    
Wind  
Wind Speed 8 mph (South)    
Max Wind Speed 16 mph    
Max Gust Speed 21 mph    
Visibility 10 miles    
Events      
Averages and records for this station are not official NWS values.
T = Trace of Precipitation, MM = Missing Value Source: NWS Daily Summary

Daily Weather History Graph

Daily Weather History Graph

Search for Another Location

Airport:

Trip Planner

Search our weather history database for the weather conditions in past years. The results will help you decide how hot, cold, wet, or windy it might be!

Date:

Astronomy

Sep. 07, 2014 Rise Set
Actual Time 6:50 AM CDT 7:45 PM CDT
Civil Twilight 6:21 AM CDT 8:14 PM CDT
Nautical Twilight 5:46 AM CDT 8:49 PM CDT
Astronomical Twilight 5:09 AM CDT 9:25 PM CDT
Moon 6:46 PM CDT (9/7) 5:02 AM CDT (9/7)
Length of Visible Light 13h 53m
Length of Day
12h 54m
Waxing Gibbous, 97% of the Moon is Illuminated
Sep 7
Waxing Gibbous
Sep 8
Full
Sep 15
Last Quarter
Sep 24
New
Oct 1
First Quarter

Hourly Weather History & Observations

Time (CDT) Temp. Dew Point Humidity Pressure Visibility Wind Dir Wind Speed Gust Speed Precip Events Conditions
12:34 AM 55.4 °F 48.2 °F 77% 30.19 in 10.0 mi SSW 5.8 mph - N/A   Clear
12:53 AM 55.4 °F 48.2 °F 77% 30.19 in 10.0 mi SSW 3.5 mph - N/A   Clear
1:13 AM 55.4 °F 48.2 °F 77% 30.19 in 10.0 mi South 3.5 mph - N/A   Clear
1:33 AM 55.4 °F 48.2 °F 77% 30.19 in 10.0 mi South 3.5 mph - N/A   Clear
1:53 AM 53.6 °F 48.2 °F 82% 30.19 in 10.0 mi SSW 5.8 mph - N/A   Clear
2:33 AM 53.6 °F 48.2 °F 82% 30.18 in 10.0 mi SSW 5.8 mph - N/A   Clear
2:53 AM 53.6 °F 48.2 °F 82% 30.18 in 10.0 mi SSW 4.6 mph - N/A   Clear
3:14 AM 53.6 °F 48.2 °F 82% 30.18 in 10.0 mi SSW 4.6 mph - N/A   Clear
3:33 AM 53.6 °F 48.2 °F 82% 30.18 in 10.0 mi SSW 6.9 mph - N/A   Clear
3:53 AM 53.6 °F 48.2 °F 82% 30.17 in 10.0 mi SSW 6.9 mph - N/A   Clear
4:13 AM 53.6 °F 48.2 °F 82% 30.17 in 10.0 mi SSW 5.8 mph - N/A   Clear
4:33 AM 53.6 °F 48.2 °F 82% 30.17 in 10.0 mi SSW 9.2 mph - N/A   Clear
4:54 AM 51.8 °F 48.2 °F 88% 30.18 in 10.0 mi SSW 5.8 mph - N/A   Clear
5:13 AM 51.8 °F 48.2 °F 88% 30.18 in 10.0 mi SSW 5.8 mph - N/A   Clear
5:33 AM 51.8 °F 46.4 °F 82% 30.18 in 10.0 mi SSW 5.8 mph - N/A   Clear
5:54 AM 51.8 °F 46.4 °F 82% 30.17 in 10.0 mi SW 6.9 mph - N/A   Clear
6:13 AM 51.8 °F 48.2 °F 88% 30.17 in 10.0 mi SSW 6.9 mph - N/A   Clear
6:33 AM 53.6 °F 46.4 °F 77% 30.17 in 10.0 mi SSW 8.1 mph - N/A   Clear
6:54 AM 53.6 °F 46.4 °F 77% 30.18 in 10.0 mi SSW 8.1 mph - N/A   Clear
7:13 AM 53.6 °F 48.2 °F 82% 30.17 in 10.0 mi SSW 5.8 mph - N/A   Clear
7:33 AM 53.6 °F 48.2 °F 82% 30.17 in 10.0 mi SSW 8.1 mph - N/A   Clear
7:54 AM 55.4 °F 48.2 °F 77% 30.17 in 10.0 mi South 4.6 mph - N/A   Clear
8:13 AM 55.4 °F 48.2 °F 77% 30.17 in 10.0 mi South 8.1 mph - N/A   Clear
8:33 AM 57.2 °F 50.0 °F 77% 30.16 in 10.0 mi SSW 11.5 mph - N/A   Clear
8:54 AM 60.8 °F 51.8 °F 72% 30.16 in 10.0 mi SSW 10.4 mph - N/A   Clear
9:13 AM 62.6 °F 51.8 °F 68% 30.16 in 10.0 mi SSW 12.7 mph - N/A   Clear
9:33 AM 62.6 °F 51.8 °F 68% 30.16 in 10.0 mi SSW 16.1 mph - N/A   Clear
9:53 AM 64.4 °F 51.8 °F 64% 30.16 in 10.0 mi SSW 15.0 mph 20.7 mph N/A   Clear
10:14 AM 64.4 °F 51.8 °F 64% 30.16 in 10.0 mi SSW 15.0 mph - N/A   Clear
10:33 AM 66.2 °F 51.8 °F 60% 30.16 in 10.0 mi South 15.0 mph 20.7 mph N/A   Clear
10:53 AM 66.2 °F 51.8 °F 60% 30.16 in 10.0 mi SSW 15.0 mph 18.4 mph N/A   Clear
11:14 AM 69.8 °F 53.6 °F 56% 30.15 in 10.0 mi SSW 13.8 mph 18.4 mph N/A   Clear
11:33 AM 69.8 °F 51.8 °F 53% 30.15 in 10.0 mi South 12.7 mph 17.3 mph N/A   Clear
11:53 AM 69.8 °F 53.6 °F 56% 30.14 in 10.0 mi South 9.2 mph - N/A   Clear
12:13 PM 71.6 °F 53.6 °F 53% 30.13 in 10.0 mi SSW 11.5 mph - N/A   Clear
12:33 PM 71.6 °F 53.6 °F 53% 30.12 in 10.0 mi SSW 12.7 mph 19.6 mph N/A   Clear
12:54 PM 71.6 °F 51.8 °F 50% 30.12 in 10.0 mi SSW 12.7 mph 18.4 mph N/A   Clear
1:13 PM 71.6 °F 51.8 °F 50% 30.12 in 10.0 mi South 12.7 mph 18.4 mph N/A   Clear
1:33 PM 73.4 °F 53.6 °F 50% 30.11 in 10.0 mi South 12.7 mph 17.3 mph N/A   Clear
1:54 PM 73.4 °F 53.6 °F 50% 30.10 in 10.0 mi South 11.5 mph 17.3 mph N/A   Clear
2:13 PM 73.4 °F 53.6 °F 50% 30.10 in 10.0 mi SSW 11.5 mph - N/A   Clear
2:33 PM 73.4 °F 51.8 °F 47% 30.09 in 10.0 mi South 12.7 mph - N/A   Clear
2:53 PM 73.4 °F 53.6 °F 50% 30.09 in 10.0 mi South 13.8 mph 19.6 mph N/A   Clear
3:13 PM 73.4 °F 51.8 °F 47% 30.08 in 10.0 mi South 9.2 mph 16.1 mph N/A   Clear
3:33 PM 73.4 °F 51.8 °F 47% 30.07 in 10.0 mi South 10.4 mph 17.3 mph N/A   Clear
3:53 PM 73.4 °F 51.8 °F 47% 30.07 in 10.0 mi South 10.4 mph - N/A   Clear
4:13 PM 73.4 °F 53.6 °F 50% 30.06 in 10.0 mi SSE 13.8 mph 18.4 mph N/A   Scattered Clouds
4:33 PM 73.4 °F 51.8 °F 47% 30.05 in 10.0 mi South 12.7 mph 16.1 mph N/A   Clear
4:53 PM 73.4 °F 51.8 °F 47% 30.05 in 10.0 mi SSE 10.4 mph - N/A   Clear
5:13 PM 73.4 °F 50.0 °F 44% 30.05 in 10.0 mi South 13.8 mph 17.3 mph N/A   Clear
5:33 PM 71.6 °F 51.8 °F 50% 30.05 in 10.0 mi South 10.4 mph - N/A   Clear
5:53 PM 69.8 °F 51.8 °F 53% 30.05 in 10.0 mi South 9.2 mph - N/A   Clear
6:13 PM 69.8 °F 51.8 °F 53% 30.04 in 10.0 mi SSE 6.9 mph - N/A   Clear
6:33 PM 69.8 °F 53.6 °F 56% 30.04 in 10.0 mi SSE 5.8 mph - N/A   Clear
6:53 PM 69.8 °F 53.6 °F 56% 30.03 in 10.0 mi SSE 6.9 mph - N/A   Clear
7:13 PM 68.0 °F 53.6 °F 60% 30.03 in 10.0 mi SSE 5.8 mph - N/A   Clear
7:33 PM 66.2 °F 53.6 °F 64% 30.02 in 10.0 mi SSE 6.9 mph - N/A   Clear
7:53 PM 64.4 °F 53.6 °F 68% 30.02 in 10.0 mi SSE 6.9 mph - N/A   Clear
8:13 PM 62.6 °F 53.6 °F 72% 30.02 in 10.0 mi SSE 6.9 mph - N/A   Clear
8:33 PM 62.6 °F 53.6 °F 72% 30.03 in 10.0 mi SSE 6.9 mph - N/A   Clear
8:53 PM 62.6 °F 51.8 °F 68% 30.02 in 10.0 mi SSE 6.9 mph - N/A   Clear
9:33 PM 62.6 °F 51.8 °F 68% 30.02 in 10.0 mi SSE 6.9 mph - N/A   Clear
9:53 PM 60.8 °F 51.8 °F 72% 30.02 in 10.0 mi SSE 6.9 mph - N/A   Clear
10:14 PM 60.8 °F 51.8 °F 72% 30.02 in 10.0 mi South 5.8 mph - N/A   Clear
10:33 PM 60.8 °F 51.8 °F 72% 30.02 in 10.0 mi South 6.9 mph - N/A   Clear
11:14 PM 59.0 °F 51.8 °F 77% 30.01 in 10.0 mi South 6.9 mph - N/A   Clear
11:33 PM 59.0 °F 51.8 °F 77% 30.01 in 10.0 mi South 5.8 mph - N/A   Clear
11:53 PM 59.0 °F 53.6 °F 82% 30.00 in 10.0 mi SSE 4.6 mph - N/A   Clear